Maugansville, MD

5:26 AM EST on February 09, 2016 (GMT -0500)
Hagerstown Regional-Henson

Weather History for KHGR - November, 2011

Change the Weather History Date:

Tuesday, November 29, 2011

  Actual Average Record
Temperature  
Mean Temperature 58 °F 40 °F  
Max Temperature 64 °F 47 °F 69 °F (1998)
Min Temperature 51 °F 32 °F 24 °F (2010)
Degree Days  
Heating Degree Days 7 25  
Month to date heating degree days 464 577  
Since 1 July heating degree days 861 979  
Cooling Degree Days 0 0  
Month to date cooling degree days 0 0  
Year to date cooling degree days 1313 969  
Growing Degree Days 4 (Base 50)    
Moisture  
Dew Point 51 °F    
Average Humidity 83    
Maximum Humidity 93    
Minimum Humidity 73    
Precipitation  
Precipitation 0.38 in 0.13 in 0.60 in (2005)
Month to date precipitation 3.59 3.09  
Year to date precipitation 43.98 36.27  
Sea Level Pressure  
Sea Level Pressure 29.75 in    
Wind  
Wind Speed 13 mph (SSE)    
Max Wind Speed 24 mph    
Max Gust Speed 31 mph    
Visibility 9 miles    
Events Rain    
T = Trace of Precipitation, MM = Missing Value Source: NWS Daily Summary

Daily Weather History Graph

Daily Weather History Graph

Search for Another Location

Airport or City:

Trip Planner

Search our weather history database for the weather conditions in past years. The results will help you decide how hot, cold, wet, or windy it might be!

Date:

Astronomy

Nov. 29, 2011 Rise Set
Actual Time 7:10 AM EST 4:47 PM EST
Civil Twilight 6:40 AM EST 5:17 PM EST
Nautical Twilight 6:07 AM EST 5:50 PM EST
Astronomical Twilight 5:34 AM EST 6:23 PM EST
Moon 10:56 AM EST (11/29) 9:38 PM EST (11/29)
Length of Visible Light 10h 36m
Length of Day
9h 37m
Waxing Crescent, 24% of the Moon is Illuminated
Nov 29
Waxing Crescent
Dec 2
First Quarter
Dec 10
Full
Dec 17
Last Quarter
Dec 24
New

Hourly Weather History & Observations

Time (EST) Temp. Windchill Dew Point Humidity Pressure Visibility Wind Dir Wind Speed Gust Speed Precip Events Conditions
12:53 AM 62.1 °F - 55.9 °F 80% 29.96 in 10.0 mi SE 9.2 mph - N/A   Overcast
1:16 AM 62.6 °F - 55.4 °F 77% 29.92 in 10.0 mi SE 12.7 mph 18.4 mph N/A   Overcast
1:51 AM 62.6 °F - 55.4 °F 77% 29.91 in 10.0 mi SE 8.1 mph - N/A   Overcast
1:53 AM 62.1 °F - 55.9 °F 80% 29.94 in 10.0 mi SE 11.5 mph - N/A   Overcast
2:53 AM 62.1 °F - 55.9 °F 80% 29.91 in 10.0 mi SE 10.4 mph - N/A   Mostly Cloudy
3:15 AM 62.6 °F - 57.2 °F 82% 29.88 in 10.0 mi SE 16.1 mph 23.0 mph N/A   Overcast
3:53 AM 61.0 °F - 57.0 °F 87% 29.88 in 10.0 mi SE 11.5 mph - N/A   Overcast
4:53 AM 61.0 °F - 57.9 °F 90% 29.87 in 10.0 mi SE 9.2 mph - 0.00 in Rain Light Rain
5:29 AM 60.8 °F - 57.2 °F 88% 29.83 in 10.0 mi SE 10.4 mph - 0.00 in   Overcast
5:53 AM 61.0 °F - 55.9 °F 83% 29.85 in 10.0 mi SE 8.1 mph - 0.00 in   Mostly Cloudy
6:53 AM 62.1 °F - 55.9 °F 80% 29.83 in 10.0 mi SE 13.8 mph 23.0 mph N/A   Scattered Clouds
7:53 AM 63.0 °F - 55.9 °F 78% 29.81 in 10.0 mi SE 18.4 mph 23.0 mph N/A   Overcast
8:05 AM 64.4 °F - 55.4 °F 73% 29.79 in 10.0 mi SE 16.1 mph 25.3 mph N/A   Overcast
8:35 AM 64.4 °F - 55.4 °F 73% 29.77 in 10.0 mi SE 18.4 mph 24.2 mph N/A   Overcast
8:53 AM 64.0 °F - 55.9 °F 75% 29.78 in 10.0 mi SE 18.4 mph 28.8 mph N/A   Overcast
9:30 AM 62.6 °F - 57.2 °F 82% 29.75 in 10.0 mi SE 15.0 mph 27.6 mph N/A   Overcast
9:38 AM 62.6 °F - 55.4 °F 77% 29.75 in 10.0 mi SE 15.0 mph 23.0 mph N/A   Overcast
9:53 AM 63.0 °F - 55.9 °F 78% 29.76 in 10.0 mi SE 13.8 mph - 0.00 in Rain Light Rain
10:05 AM 62.6 °F - 57.2 °F 82% 29.74 in 8.0 mi SE 19.6 mph 25.3 mph 0.00 in Rain Light Rain
10:53 AM 62.1 °F - 57.9 °F 86% 29.73 in 4.0 mi SSE 15.0 mph 24.2 mph 0.05 in Rain Rain
11:00 AM 60.8 °F - 57.2 °F 88% 29.72 in 2.5 mi South 18.4 mph 25.3 mph 0.03 in Rain Light Rain
11:08 AM 60.8 °F - 57.2 °F 88% 29.72 in 5.0 mi South 18.4 mph 23.0 mph 0.04 in Rain Light Rain
11:51 AM 57.2 °F - 53.6 °F 88% 29.71 in 4.0 mi South 11.5 mph - 0.16 in Rain Rain
11:53 AM 57.0 °F - 54.0 °F 89% 29.74 in 4.0 mi South 11.5 mph - 0.17 in Rain Rain
12:14 PM 55.4 °F - 53.6 °F 94% 29.71 in 5.0 mi South 12.7 mph - 0.05 in Rain Rain
12:53 PM 53.1 °F - 51.1 °F 93% 29.73 in 7.0 mi SSE 13.8 mph - 0.13 in Rain Rain
1:53 PM 52.0 °F - 46.0 °F 80% 29.70 in 10.0 mi South 11.5 mph - 0.03 in Rain Light Rain
2:33 PM 51.8 °F - 48.2 °F 88% 29.66 in 10.0 mi SSE 15.0 mph - 0.00 in   Mostly Cloudy
2:46 PM 51.8 °F - 48.2 °F 88% 29.66 in 10.0 mi SSE 11.5 mph 20.7 mph 0.00 in   Mostly Cloudy
2:53 PM 52.0 °F - 48.9 °F 89% 29.68 in 10.0 mi SSE 12.7 mph - 0.00 in   Mostly Cloudy
3:40 PM 51.8 °F - 46.4 °F 82% 29.65 in 10.0 mi SSE 16.1 mph - N/A   Scattered Clouds
3:53 PM 51.1 °F - 46.0 °F 83% 29.67 in 10.0 mi SSE 13.8 mph - N/A   Partly Cloudy
4:53 PM 50.0 °F - 46.0 °F 86% 29.68 in 10.0 mi SSE 10.4 mph - N/A   Scattered Clouds
5:06 PM 50.0 °F - 46.4 °F 87% 29.65 in 10.0 mi SSE 13.8 mph - N/A   Mostly Cloudy
5:38 PM 48.2 °F - 44.6 °F 87% 29.66 in 10.0 mi SSE 9.2 mph - N/A   Scattered Clouds
5:53 PM 48.0 °F - 44.1 °F 86% 29.69 in 10.0 mi SSE 9.2 mph 17.3 mph N/A   Clear
6:53 PM 48.0 °F - 44.1 °F 86% 29.67 in 10.0 mi SSE 10.4 mph - N/A   Clear
7:53 PM 48.0 °F - 44.1 °F 86% 29.67 in 10.0 mi South 9.2 mph - N/A   Scattered Clouds
8:40 PM 48.2 °F - 44.6 °F 87% 29.63 in 10.0 mi South 10.4 mph - N/A   Mostly Cloudy
8:53 PM 48.0 °F - 44.1 °F 86% 29.66 in 10.0 mi South 8.1 mph - N/A   Overcast
9:53 PM 46.9 °F - 43.0 °F 86% 29.64 in 10.0 mi South 10.4 mph - N/A   Mostly Cloudy
11:45 PM 44.6 °F 35.5 °F 37.4 °F 76% 29.61 in 10.0 mi West 25.3 mph 34.5 mph 0.00 in Rain Light Rain
11:53 PM 43.0 °F 34.8 °F 37.9 °F 82% 29.66 in 9.0 mi West 18.4 mph 34.5 mph 0.00 in Rain Light Rain
11:57 PM 42.8 °F 34.3 °F 37.4 °F 81% 29.63 in 10.0 mi West 19.6 mph - 0.00 in Rain Light Rain